RH
89 87 88 89 91 92 89 91 89 86 84 80 78 78 76 69 63 62 59 59 62 55 42 40 41 37 33 26 21 18 14 12 22 40 49 48 49 49 48 47 44 42 41 42 43 42 40 37 42 47 46 48 59 66 65 66 68 69 68 68 69 68
87 83 86 90 92 91 90 94 92 88 84 81 81 77 71 64 67 75 76 76 77 70 59 54 52 50 46 39 33 26 19 13 17 34 47 48 49 47 44 43 43 45 48 50 51 47 42 39 41 42 41 48 58 61 60 60 61 63 66 68 69 70
82 82 89 92 93 91 91 94 93 89 83 83 82 75 70 71 77 83 84 85 85 82 79 76 76 74 64 55 51 45 32 20 16 27 41 47 46 44 46 53 58 61 62 62 61 58 54 52 50 47 45 50 57 58 57 56 56 58 60 63 64 67
83 85 93 93 93 94 94 95 92 88 84 84 83 74 71 78 82 82 85 87 87 84 81 81 84 84 77 68 65 63 55 40 25 23 32 42 45 51 60 66 69 69 67 65 65 64 63 62 60 56 55 57 60 61 59 56 54 56 57 58 59 61
89 90 94 94 95 98 97 94 91 87 85 85 84 76 71 78 82 83 86 86 85 80 75 76 78 79 78 77 76 74 72 64 50 37 40 53 63 68 71 72 72 71 69 68 69 69 68 67 65 63 63 63 63 63 63 60 58 57 57 58 57 57
92 93 94 96 96 98 96 92 90 86 86 87 85 80 74 78 82 83 85 84 82 77 73 73 75 76 75 76 79 80 80 77 71 63 62 68 74 76 75 76 76 75 74 73 73 74 74 73 72 71 69 69 68 67 66 64 62 60 60 60 58 58
96 96 97 99 95 97 97 90 87 86 87 88 86 82 76 79 81 83 84 82 79 76 74 73 73 73 73 75 77 81 82 79 77 75 73 71 75 79 79 78 76 75 75 75 76 77 78 79 79 78 76 75 73 72 71 69 66 64 63 62 61 60
99 94 97 97 90 96 96 88 86 87 87 87 86 81 76 79 81 82 82 81 80 74 73 76 76 75 75 77 77 79 80 78 77 76 76 74 79 82 79 79 78 79 80 80 81 81 81 81 81 79 78 78 76 75 74 73 71 69 68 66 66 64
95 89 94 90 87 95 92 87 88 86 85 85 83 78 76 79 80 84 82 77 75 70 70 77 80 79 79 80 78 78 80 79 77 78 81 81 82 82 82 83 84 85 85 85 84 83 81 79 78 76 77 77 76 75 74 74 74 73 74 73 72 70
91 90 93 89 92 97 90 89 90 82 82 82 78 77 79 81 84 87 84 77 72 72 77 80 81 81 83 85 81 80 81 82 81 82 85 85 85 85 87 88 87 85 84 83 81 80 79 76 75 74 75 75 75 76 75 76 75 75 75 75 76 75
94 96 95 95 100 97 90 91 90 82 81 77 74 79 81 84 90 90 85 79 72 76 83 83 83 84 86 86 83 83 83 84 83 83 85 87 87 89 89 88 85 82 80 80 79 78 77 75 74 73 73 74 75 75 76 76 75 75 74 75 76 76
98 100 98 100 100 94 90 91 89 84 82 75 75 81 83 87 93 88 81 78 75 81 86 84 84 85 86 84 83 85 86 86 85 85 88 89 89 90 88 86 84 81 80 79 78 76 74 73 73 73 73 73 73 73 73 73 73 73 73 74 75 76
99 100 100 100 97 92 91 90 88 84 80 76 78 83 85 89 92 85 77 77 81 86 87 85 83 84 86 87 88 89 90 90 89 89 91 90 89 89 86 84 83 81 80 78 76 74 73 73 74 75 75 74 73 72 71 70 70 71 70 72 74 75
99 100 101 99 97 93 91 88 85 82 77 76 80 83 84 87 90 85 78 80 83 86 87 85 84 85 87 90 91 93 93 92 91 91 90 90 88 86 84 82 81 80 79 77 76 76 76 77 78 78 75 73 72 70 70 70 69 69 70 72 74 76
100 100 100 99 98 93 88 85 82 80 77 78 81 80 81 84 86 84 80 81 83 85 87 86 86 88 87 89 89 91 93 91 91 90 89 89 85 83 82 80 79 78 77 77 78 79 79 79 80 78 75 72 71 70 71 72 72 72 73 76 76 78
100 100 97 94 95 91 87 83 81 80 79 80 81 80 81 81 84 84 80 80 84 87 88 86 88 89 88 89 88 89 91 91 90 89 89 87 83 82 81 79 79 77 77 79 80 80 79 79 79 78 74 71 71 73 74 74 74 75 75 77 77 77
100 98 93 90 92 91 87 84 81 82 82 82 80 79 80 81 84 83 80 82 88 91 88 88 89 90 91 91 89 89 90 92 91 88 87 84 82 81 80 80 79 78 80 81 83 81 79 79 79 77 71 70 75 75 76 77 76 77 76 75 74 74
100 97 94 93 95 93 90 84 82 84 83 81 80 80 80 82 86 85 85 89 93 93 90 91 91 91 92 91 90 91 91 92 89 85 84 82 82 81 80 81 79 80 82 83 84 81 80 78 75 72 66 68 78 76 76 80 78 77 77 76 74 71
98 97 97 96 96 94 90 85 86 89 88 88 88 88 88 88 90 90 92 94 95 94 92 92 92 91 92 91 91 91 90 89 86 84 82 81 81 80 80 80 80 82 83 84 83 80 79 73 69 68 60 66 81 80 76 79 81 80 78 77 74 70
93 93 94 94 94 92 91 91 95 97 96 97 97 96 95 94 94 94 95 95 94 93 93 93 92 92 92 90 90 88 88 86 85 84 82 82 81 80 80 80 82 83 82 83 80 78 76 69 66 59 48 57 79 87 81 73 73 79 81 79 76 72
88 91 92 93 95 92 93 96 100 100 100 101 99 98 98 97 96 95 95 94 94 94 94 94 93 92 91 89 88 87 86 85 85 84 83 83 82 82 82 81 83 82 82 81 78 78 73 66 66 62 54 51 61 77 81 71 65 72 82 81 77 74
88 92 93 94 95 93 93 97 99 100 100 100 100 99 99 99 96 95 96 95 95 96 95 93 93 91 89 88 87 86 85 85 85 84 84 84 83 83 81 80 81 80 82 80 79 79 71 65 67 78 88 76 65 69 70 69 63 68 82 83 77 74
91 93 95 94 94 94 95 96 95 97 99 99 100 100 99 100 96 95 97 95 94 94 93 91 91 89 87 87 86 85 85 84 85 84 83 83 82 80 78 78 77 77 80 79 79 78 75 75 69 77 97 95 90 87 77 71 61 62 80 85 77 76
94 94 96 96 96 96 97 97 96 97 98 98 100 100 100 100 98 97 96 93 92 91 90 89 88 88 86 86 85 85 85 84 84 83 82 81 79 78 77 75 74 74 76 75 76 78 80 84 77 77 93 98 97 97 93 88 80 72 74 80 80 78
94 96 98 99 99 98 97 98 99 100 100 99 101 100 100 100 97 95 93 91 91 89 89 89 87 87 86 86 86 85 85 84 84 83 82 81 79 77 75 72 73 71 71 73 76 78 82 89 87 83 90 97 97 98 98 94 93 82 66 76 89 78
95 99 100 100 100 98 97 98 98 100 100 100 101 100 98 97 94 92 91 91 90 89 89 88 88 87 87 87 86 85 85 84 84 82 81 80 76 74 72 71 71 68 69 73 72 74 82 88 90 88 86 89 89 92 94 90 94 85 67 73 80 66
98 100 100 100 99 98 96 95 94 96 98 97 99 99 96 93 92 91 90 89 88 88 87 86 87 87 86 87 86 85 85 83 82 81 79 76 72 69 68 67 67 65 68 70 65 71 80 80 82 87 87 84 81 80 79 84 96 97 85 76 63 52
100 100 99 100 99 95 88 88 92 94 95 95 95 96 93 91 90 89 88 87 86 86 85 85 85 85 85 85 85 85 84 83 81 78 74 70 67 66 66 67 68 67 69 70 68 71 75 75 75 79 78 77 81 79 72 74 85 93 98 89 68 57
100 99 100 100 96 91 86 88 94 94 95 96 94 92 91 89 88 87 86 85 85 85 84 84 83 83 83 83 84 84 82 81 77 74 70 67 67 68 69 72 73 72 72 72 73 72 73 74 75 75 72 69 72 76 73 72 77 85 95 93 77 69
100 100 101 98 93 92 91 91 94 95 95 96 94 91 89 88 88 86 86 85 84 84 83 83 83 82 82 81 82 82 79 77 72 70 69 69 71 72 73 75 74 73 72 72 73 72 74 76 75 76 73 69 74 81 83 85 89 92 94 93 86 78
100 100 101 96 90 93 92 91 95 95 94 94 91 90 89 88 88 86 85 84 83 83 82 82 82 81 80 80 80 79 76 73 71 71 73 74 75 75 75 74 72 71 69 69 70 68 70 71 72 75 75 75 81 88 91 93 96 95 94 94 91 84
100 100 99 90 86 92 93 93 97 96 92 91 89 89 88 87 87 85 84 83 82 82 82 82 80 79 80 80 79 76 74 73 73 74 77 78 76 74 73 71 68 68 67 66 64 60 63 67 70 74 78 80 82 85 88 90 91 92 93 93 90 86
100 100 97 86 87 96 97 97 100 97 92 89 89 89 87 86 85 84 83 82 81 82 81 81 80 79 80 80 76 75 74 73 73 75 76 76 74 71 69 67 66 65 63 62 57 57 64 71 74 76 79 82 83 86 88 87 89 90 90 89 87 86
99 101 97 88 90 95 95 98 100 96 92 90 90 88 86 85 84 83 82 81 80 80 79 79 80 80 80 78 75 74 73 73 73 74 74 73 71 69 66 65 63 60 60 60 57 61 68 70 72 73 75 78 82 84 85 84 86 86 85 86 86 86
99 101 98 91 92 92 92 99 101 97 94 91 90 88 85 84 83 82 81 79 78 77 76 79 81 81 79 76 74 74 73 73 73 72 71 70 68 66 64 61 58 57 61 61 58 61 65 65 68 71 72 74 76 78 80 81 81 82 83 85 87 88
99 101 98 96 98 95 93 99 101 98 96 93 89 87 85 84 82 81 78 77 76 74 75 79 81 80 79 76 73 73 73 73 72 70 69 67 66 65 63 59 54 54 59 58 56 60 63 65 68 70 71 71 74 78 80 80 80 81 82 82 83 85
100 101 100 99 100 99 98 100 100 100 97 92 88 86 85 83 81 80 78 76 74 73 77 79 79 78 76 74 72 72 72 72 71 69 68 67 66 65 60 54 50 52 57 56 56 61 63 65 68 67 70 73 75 78 77 76 76 76 77 77 77 79
Wind_Speed
23 24 24 22 22 21 19 18 18 17 17 17 16 14 12 11 11 11 12 12 13 13 13 13 14 14 13 12 10 9 8 7 9 10 8 6 5 4 3 3 3 4 4 4 4 4 4 4 3 3 3 4 7 9 10 10 9 9 9 8 7 7
24 25 25 23 23 21 20 19 19 18 18 17 16 14 12 13 13 13 12 12 12 13 13 14 15 15 14 13 12 11 9 8 8 9 8 6 4 2 2 3 3 4 4 4 4 4 4 4 4 4 4 5 7 9 11 11 10 9 9 9 9 8
25 26 26 24 23 22 21 19 19 19 18 18 16 15 14 14 14 13 11 11 11 12 12 13 14 13 12 13 12 12 10 9 8 8 7 6 3 2 2 3 3 4 4 4 5 5 5 5 5 4 4 6 8 10 11 11 11 10 10 10 11 11
25 26 26 24 23 23 21 20 19 19 18 18 16 15 15 14 13 12 11 10 10 10 10 11 12 11 11 12 12 11 11 10 8 7 7 5 3 2 2 2 3 3 4 5 6 6 6 6 6 5 5 7 8 9 11 11 10 10 11 11 12 12
25 26 26 24 24 23 22 20 19 19 19 18 16 15 14 13 13 12 10 9 9 9 10 11 12 11 11 11 11 10 9 9 9 8 7 6 4 2 2 2 3 3 4 5 6 6 6 6 7 7 7 8 9 10 11 11 10 9 10 11 12 12
27 27 27 25 25 23 22 21 20 20 19 18 16 15 13 13 13 12 10 9 9 9 9 10 9 10 10 9 9 8 7 7 8 7 6 5 3 3 3 3 4 4 4 5 5 6 7 7 8 8 8 9 10 10 10 10 10 9 10 10 11 11
29 29 27 26 26 24 23 23 22 21 20 18 16 14 13 12 12 11 9 8 8 7 7 7 7 7 7 7 7 6 6 5 5 5 4 3 3 4 4 5 5 5 5 5 5 6 7 7 8 8 9 9 9 10 10 10 10 10 10 11 11 11
30 30 29 29 28 26 25 24 22 22 20 18 16 14 13 13 12 10 9 7 6 5 5 6 6 7 6 7 7 6 6 5 4 3 2 3 3 4 4 5 5 5 5 6 6 7 7 8 8 9 8 8 8 9 9 9 9 10 10 11 11 11
32 31 31 30 29 27 26 25 24 23 21 19 17 15 14 13 11 9 8 7 5 4 4 5 6 6 6 6 6 6 5 5 4 3 3 3 2 3 4 5 5 5 6 6 7 7 8 8 8 8 8 8 8 9 10 10 10 10 10 10 10 10
31 30 30 29 28 27 26 25 24 23 22 19 17 15 14 13 10 8 7 6 5 4 4 4 5 5 5 5 5 4 3 3 3 2 2 2 3 4 4 4 4 5 5 6 7 7 8 8 8 8 8 9 9 10 10 10 10 10 10 10 10 10
30 28 29 28 27 26 24 23 22 21 20 18 17 16 15 12 9 6 5 5 4 5 4 3 3 4 4 3 3 3 3 2 2 2 1 1 3 4 4 3 4 4 5 6 7 8 9 9 9 8 8 9 10 10 10 10 10 10 10 10 10 10
30 26 27 27 26 24 23 22 21 20 19 18 18 17 14 11 8 5 5 6 5 5 4 2 2 2 2 2 3 3 3 3 3 3 2 2 3 3 3 3 4 5 5 7 8 9 10 10 10 9 9 10 10 10 10 10 10 10 10 9 9 8
28 25 24 24 23 22 22 21 20 19 18 18 17 16 13 10 7 5 6 6 4 4 3 1 1 0 1 3 4 5 4 5 5 4 3 3 3 3 3 3 4 5 6 7 9 10 10 10 10 9 9 10 10 11 10 10 10 10 10 9 8 8
26 25 23 22 22 22 22 21 19 19 18 17 16 15 13 9 6 6 6 5 4 4 3 2 2 2 2 4 5 6 5 6 5 4 3 2 2 2 2 3 4 5 7 8 9 9 9 9 9 9 9 10 10 10 10 9 9 9 8 7 6 6
24 23 22 22 22 22 21 20 20 19 19 17 16 15 12 9 7 7 7 6 5 4 3 2 3 4 3 4 5 6 6 5 5 4 2 2 2 0 1 3 4 6 7 8 8 9 9 9 9 9 9 10 10 9 7 6 6 6 5 5 5 6
22 22 22 22 23 22 21 20 20 19 18 17 16 14 13 10 8 8 8 7 5 5 3 3 5 5 3 3 4 5 5 5 5 3 3 3 3 1 2 4 6 7 8 9 9 9 9 10 10 10 10 10 8 6 5 6 6 7 7 7 9 10
21 21 21 22 22 22 22 21 19 18 16 16 15 14 13 11 10 10 9 7 6 5 4 4 5 4 3 3 3 4 5 5 5 4 4 4 3 1 2 4 6 8 8 9 10 10 11 11 12 11 10 9 6 6 8 9 10 10 10 11 12 13
20 20 20 21 21 21 22 20 19 17 15 14 14 14 13 12 12 11 9 7 6 6 5 5 4 3 3 4 4 4 5 5 5 4 5 4 3 1 2 4 6 7 8 9 10 12 14 14 14 14 11 7 4 8 11 11 12 12 12 13 14 15
19 20 19 19 19 20 20 19 17 16 15 15 15 15 14 14 12 10 9 7 7 6 5 5 4 4 4 5 5 5 5 5 4 4 3 3 2 0 2 4 5 6 8 9 10 12 14 15 15 13 10 6 3 7 11 12 12 12 13 14 14 15
20 20 18 19 20 20 20 18 18 17 17 17 16 16 14 13 12 10 9 7 6 6 5 5 5 5 5 6 6 5 5 5 4 3 1 1 1 1 2 4 5 6 8 9 11 12 13 16 14 12 11 5 3 3 5 10 12 13 12 13 14 15
21 20 19 20 21 21 21 20 20 19 18 17 16 15 14 13 12 10 8 7 7 6 6 7 6 6 6 6 6 6 5 3 2 1 1 2 2 2 3 5 6 7 8 9 11 13 15 14 10 11 11 5 1 3 3 4 10 15 13 12 13 15
22 20 20 21 21 22 22 22 21 19 18 16 15 15 15 13 11 10 9 9 8 9 9 8 7 7 7 6 6 4 3 2 1 1 2 2 2 3 4 5 5 7 8 9 11 13 15 12 8 9 7 5 5 1 2 1 4 14 14 11 13 15
23 21 20 21 21 22 21 21 20 19 18 16 16 15 15 13 11 12 13 12 11 11 10 9 9 8 6 5 4 3 2 1 2 3 3 2 2 3 4 5 6 6 6 6 8 11 14 12 11 9 3 2 4 2 2 2 7 14 13 12 14 16
23 21 21 21 21 21 20 19 18 18 17 16 16 16 16 15 14 16 17 15 14 12 9 8 9 7 5 5 4 3 1 1 2 3 3 2 3 4 5 5 6 5 4 4 6 10 13 13 13 10 2 1 1 2 1 4 12 13 9 12 14 16
22 22 22 22 21 21 20 19 19 18 17 18 18 17 18 18 18 19 19 17 15 12 10 9 8 7 5 5 4 3 2 2 1 2 2 3 4 5 6 6 5 4 3 4 5 9 14 15 16 14 9 3 1 2 1 5 9 6 7 11 11 14
22 22 23 22 21 21 21 20 20 20 19 19 18 17 19 20 20 20 19 17 15 12 10 9 7 6 4 4 4 3 3 2 1 1 2 3 5 6 6 6 6 5 6 5 5 9 13 14 16 17 16 12 7 5 2 5 3 3 8 8 7 14
23 23 22 21 21 21 21 20 21 20 18 18 18 17 19 21 20 20 18 16 14 11 8 7 6 5 4 4 3 3 2 2 2 3 4 4 6 8 9 10 10 9 10 8 8 12 13 11 13 15 15 14 13 12 11 9 4 2 5 5 9 15
23 22 22 22 22 21 20 21 21 19 18 19 21 21 21 21 20 19 18 15 13 11 8 6 5 4 4 4 3 3 3 4 4 5 6 7 10 12 12 13 12 12 13 13 14 16 16 13 13 12 12 11 11 12 14 16 12 4 2 4 8 11
21 20 21 23 22 21 20 20 19 20 20 20 22 25 23 21 20 18 17 15 12 10 8 6 5 4 4 5 4 5 6 6 7 8 9 11 14 14 14 14 15 15 16 17 16 16 17 17 15 14 12 12 12 11 11 16 18 11 3 2 4 5
18 18 21 22 21 20 20 19 19 22 23 24 24 26 24 22 20 17 16 14 12 10 8 7 6 6 6 7 7 8 8 9 10 11 12 14 14 14 15 16 17 16 16 17 17 16 17 17 16 16 16 16 17 15 11 12 16 14 7 3 3 5
16 16 19 20 20 21 20 19 21 24 25 27 27 26 24 22 20 18 16 15 13 11 9 8 8 8 8 9 10 11 11 12 12 13 14 14 14 15 17 17 17 16 16 17 16 16 17 17 17 18 19 20 21 18 14 12 13 14 10 6 5 6
16 18 19 18 20 22 21 21 23 25 26 27 27 26 25 22 20 18 17 15 13 12 11 10 9 10 11 12 13 13 13 14 14 14 14 15 16 16 17 16 16 16 16 16 15 16 18 18 19 20 21 20 20 20 18 16 15 15 13 10 9 6
19 20 19 18 20 21 20 22 24 25 26 26 26 25 24 22 19 17 16 15 14 13 12 12 12 13 14 14 14 15 15 15 15 16 16 16 17 16 15 15 16 16 16 17 17 19 21 21 20 21 21 20 19 19 18 17 16 17 16 13 12 8
20 21 20 18 19 20 20 22 24 25 26 26 26 25 23 21 18 16 15 14 13 13 13 13 14 15 16 15 15 16 16 17 17 17 17 17 16 15 14 15 16 17 18 19 19 21 21 21 21 20 19 19 19 20 19 20 19 20 19 17 16 13
19 21 23 20 21 22 21 23 26 26 26 27 26 24 22 19 18 16 15 14 14 13 13 15 16 17 16 15 16 17 17 17 17 17 17 16 16 15 14 16 17 19 20 19 19 21 21 21 21 21 21 23 23 23 23 23 22 21 20 18 17 17
18 21 24 22 25 28 25 25 27 26 26 27 25 23 21 20 18 17 15 14 14 14 14 17 17 17 16 16 17 17 17 18 17 16 16 15 15 15 15 16 18 20 20 20 20 22 23 24 24 25 26 27 27 25 23 22 21 20 19 18 17 18
16 19 23 23 27 32 30 27 26 26 26 25 23 22 22 21 19 18 16 15 15 15 16 17 17 17 17 17 17 17 18 18 17 17 16 15 14 14 15 17 19 21 22 22 24 26 26 27 28 28 28 27 26 24 22 21 21 20 19 19 19 18
Wind_Direction
166 164 164 164 164 163 163 164 161 157 153 153 152 150 147 138 132 125 122 120 116 115 112 106 99 92 87 87 91 97 111 137 155 159 155 143 127 111 86 59 40 33 25 20 8 353 340 339 316 270 283 316 337 340 338 338 338 336 334 333 323 307
167 166 167 166 165 164 166 167 163 159 157 158 155 152 145 137 131 124 121 118 115 110 107 103 96 88 84 81 81 85 95 117 145 158 160 152 140 122 69 37 24 23 19 16 6 355 346 342 325 286 271 294 323 329 325 323 323 323 322 321 320 316
169 169 169 167 165 166 170 170 166 163 162 162 159 153 143 134 131 125 122 118 115 110 105 101 94 89 84 81 77 76 82 98 125 149 160 159 147 113 65 49 41 29 17 15 9 5 2 357 344 315 292 301 320 327 323 316 311 311 312 313 314 316
171 171 170 167 166 169 172 171 169 166 167 167 163 156 146 137 135 132 126 120 115 111 108 104 101 98 91 87 81 75 77 83 100 123 139 139 122 99 80 54 32 16 8 10 8 6 3 357 349 335 321 316 323 329 329 323 312 306 306 308 309 310
174 174 171 170 171 172 172 172 172 170 173 171 166 160 153 144 141 139 132 124 118 114 114 112 107 102 96 92 87 81 79 80 90 103 115 115 101 88 61 18 5 3 2 3 4 0 354 348 341 333 325 321 322 325 329 333 328 318 311 307 306 305
176 177 174 174 175 174 173 175 174 173 177 175 170 165 159 151 145 144 137 129 124 119 118 113 104 98 94 92 89 87 86 87 92 100 110 108 84 60 29 6 355 348 344 345 351 350 347 344 338 334 329 326 324 324 325 327 327 323 318 313 309 303
178 178 175 178 178 175 178 180 176 176 181 177 172 168 163 157 149 146 140 133 128 123 115 106 97 90 87 86 84 87 95 95 97 102 105 98 69 38 10 357 348 340 335 334 339 341 344 345 341 338 334 332 328 326 324 320 316 311 311 312 312 309
181 179 179 181 180 178 182 180 176 179 182 178 173 170 167 160 154 150 142 136 134 128 112 96 88 83 81 79 76 81 90 90 94 93 76 83 59 20 358 354 352 347 342 339 341 340 342 343 341 338 335 334 328 325 324 321 316 309 305 305 307 310
182 182 183 183 181 183 184 179 178 181 181 178 172 168 167 163 158 153 143 134 127 122 111 91 77 74 75 76 76 78 82 84 88 80 66 72 40 14 4 2 360 355 351 349 347 342 340 338 337 334 330 329 325 324 323 322 323 319 315 311 309 311
185 186 186 185 184 186 185 181 182 182 179 174 169 168 168 165 163 158 151 144 126 112 107 89 70 66 70 78 84 89 97 93 91 89 76 59 26 17 11 8 6 1 357 354 349 340 336 334 333 330 326 326 324 324 324 323 324 322 320 319 319 320
189 190 189 187 186 188 186 184 186 185 179 170 166 169 169 169 172 169 165 162 143 126 116 89 68 62 74 85 89 107 122 108 108 121 108 57 30 16 9 6 1 353 349 348 343 336 332 331 331 331 328 327 326 326 324 323 323 320 317 316 320 327
193 193 193 190 188 187 187 187 188 185 179 171 168 170 171 174 178 176 171 166 152 140 128 99 68 53 79 84 93 119 124 118 126 127 111 61 27 9 3 353 343 338 335 335 331 327 326 327 329 329 328 328 327 325 321 319 318 318 317 315 320 330
195 196 196 194 191 191 191 189 188 184 179 173 169 171 173 174 177 175 173 168 161 151 140 142 247 330 96 90 103 119 122 126 126 119 105 62 31 11 349 328 322 320 316 319 321 322 323 325 325 326 329 330 329 326 322 317 315 316 318 321 326 335
197 198 197 195 194 195 194 191 188 183 178 174 171 171 169 173 180 181 185 183 179 177 172 189 214 183 132 111 112 116 123 130 127 118 102 67 46 8 326 307 308 310 313 319 322 324 324 325 326 329 335 336 333 328 325 325 323 323 324 328 335 344
198 199 196 197 198 198 196 192 190 184 179 177 175 172 168 173 184 192 200 199 198 201 193 188 179 164 144 127 120 120 130 135 134 130 116 106 112 113 328 321 321 322 324 326 328 327 326 329 331 335 343 342 336 334 340 352 355 355 359 13 22 20
197 198 197 200 202 200 199 196 193 187 182 182 181 179 174 179 189 197 204 204 212 215 203 187 172 165 154 139 125 128 141 145 147 148 144 146 146 127 351 334 332 333 333 332 330 327 327 331 333 338 348 346 344 1 31 47 46 52 56 56 54 47
196 197 198 201 204 202 202 201 197 190 187 190 190 186 181 182 188 193 201 208 217 218 205 183 170 170 165 150 133 140 152 156 163 163 157 156 151 122 343 334 333 333 334 334 331 330 331 332 333 336 347 349 5 54 67 66 66 70 71 66 60 55
196 196 199 201 203 202 203 204 200 195 193 192 185 179 173 173 177 186 197 202 207 206 197 180 166 159 156 156 151 150 153 157 167 168 159 152 143 132 332 329 333 332 331 334 336 339 336 332 332 334 344 355 43 79 69 68 74 73 71 66 59 54
194 196 199 199 200 202 202 200 195 188 183 175 165 161 160 162 167 176 181 183 189 192 188 177 155 140 144 156 157 151 148 151 160 163 154 142 136 139 319 327 333 329 328 334 339 341 337 333 333 332 341 358 92 94 71 68 70 65 62 59 51 46
191 195 195 194 195 194 192 187 179 170 163 159 155 152 152 156 159 164 169 171 175 180 180 163 142 139 147 154 153 149 148 148 157 169 162 125 89 352 327 331 332 327 323 327 332 337 339 336 332 330 337 5 128 142 88 73 61 52 48 44 38 33
190 194 193 190 188 185 182 175 167 160 154 150 149 147 144 149 154 157 165 166 162 161 156 144 138 148 153 153 150 145 147 146 154 206 22 58 37 10 352 342 334 331 330 335 343 348 349 343 339 340 342 358 54 190 168 89 50 38 34 31 27 24
190 193 195 191 185 182 180 174 165 157 151 143 141 143 140 142 146 147 150 150 147 146 144 139 144 152 150 147 144 141 144 131 72 356 16 39 29 8 352 342 336 339 341 353 7 6 0 0 356 346 337 336 346 299 208 189 30 21 24 24 20 21
191 193 193 190 186 182 178 175 168 158 150 140 135 140 138 138 143 143 141 141 141 141 142 143 147 151 150 147 145 142 132 58 13 359 359 9 13 1 353 350 347 347 346 1 24 23 16 21 13 356 328 341 5 337 313 6 348 354 14 19 14 20
191 193 190 186 183 178 172 167 159 150 147 139 134 138 136 137 144 142 138 138 140 142 144 147 149 154 162 159 159 165 185 299 320 337 340 355 14 17 13 10 7 359 355 13 45 43 37 39 34 28 19 274 18 9 341 357 334 330 3 10 8 15
189 188 184 179 174 171 164 154 144 136 133 129 129 135 134 133 136 137 136 136 138 142 148 152 151 151 156 157 162 172 186 230 266 308 334 6 27 34 31 33 36 36 47 63 83 68 56 54 54 56 56 50 16 21 284 322 330 313 341 356 6 9
185 182 178 173 169 165 156 149 144 135 127 125 126 133 137 136 136 135 134 134 133 137 144 147 146 145 152 159 161 158 155 161 152 82 34 34 48 54 58 71 76 84 89 89 107 87 70 66 67 67 67 72 75 67 15 331 345 307 327 341 359 357
182 178 173 169 165 159 154 154 156 151 148 146 139 137 141 143 140 137 134 132 131 132 134 137 139 142 149 150 145 141 134 132 108 84 71 66 77 85 90 95 93 93 92 87 90 84 76 74 73 70 70 75 72 65 56 43 44 311 323 323 333 346
179 174 170 166 165 167 170 171 168 164 166 162 151 145 145 143 140 138 134 132 132 132 129 129 132 135 137 132 127 129 122 117 105 94 95 95 99 103 101 98 93 90 87 81 79 79 77 73 70 66 64 67 65 57 52 49 43 21 319 303 323 344
175 168 164 165 171 182 186 180 172 168 165 159 152 149 147 143 141 139 135 133 133 131 127 126 128 126 125 120 116 122 117 112 109 106 109 109 109 107 101 96 92 88 85 81 78 77 76 72 68 64 58 55 55 50 45 41 36 36 43 321 329 335
166 159 160 165 175 182 183 178 172 168 163 156 151 148 146 143 141 140 137 135 133 129 128 127 124 117 112 112 115 119 118 115 115 116 118 116 112 106 100 98 94 89 84 80 77 75 76 75 70 66 59 55 52 47 41 31 27 29 37 20 329 310
156 157 157 162 176 178 177 179 174 170 165 159 155 152 148 144 143 144 139 135 132 130 128 124 118 109 106 113 120 120 119 118 120 123 122 117 112 107 104 101 95 88 81 78 78 77 78 77 74 70 64 62 60 57 53 43 31 27 30 22 346 320
148 152 155 168 186 181 175 177 174 171 168 163 161 158 153 150 150 148 142 137 135 132 128 121 114 109 112 120 123 121 121 123 123 125 124 119 115 111 107 102 92 85 80 79 80 80 82 80 77 76 71 69 67 64 60 53 46 38 35 26 7 340
149 150 159 174 182 173 169 174 172 170 169 166 164 162 159 157 155 152 147 144 141 137 130 123 118 116 121 125 126 124 125 124 123 124 123 121 117 112 106 97 89 85 82 83 84 85 87 85 82 81 77 75 71 66 62 55 51 45 40 32 19 359
155 151 161 172 172 168 174 178 174 173 172 171 168 164 163 163 160 157 152 146 142 138 131 126 124 125 129 131 128 128 128 125 125 125 124 121 116 109 101 94 88 88 89 90 91 90 90 88 84 81 77 75 71 68 65 59 56 51 45 39 28 12
160 151 158 168 169 170 178 179 175 175 174 172 168 163 163 166 165 158 151 144 139 136 132 130 130 132 134 135 131 130 129 127 127 127 124 120 114 106 100 94 93 95 96 96 93 89 87 84 81 79 78 78 76 73 70 66 63 58 51 45 34 23
169 156 157 164 163 165 176 179 176 176 175 172 167 163 164 164 161 155 148 143 137 135 135 134 135 138 138 137 134 132 130 128 128 127 123 118 112 107 101 98 100 101 99 95 90 86 85 84 84 85 83 82 80 77 73 70 66 61 55 50 44 38
176 160 159 166 162 162 172 175 173 175 175 171 167 167 167 162 155 150 145 141 136 136 137 138 139 140 139 137 137 135 132 130 130 127 123 118 114 110 105 104 104 101 97 94 91 89 89 90 90 88 85 82 80 77 73 70 67 64 61 56 53 50